Location: Cassano d�Adda
(45.5333°N, 9.5167°E)
Time: 05:59:43
(UTC+00:00)

Cosmos 2297 - Pass Details

Date: 08 December 2019
Orbit: 836 x 858 km, 71.0° (Epoch: 24 January)

Event Time Altitude Azimuth Distance (km) Brightness Sun altitude
Rises 16:51:06 0° 339° (NNW) 3,433 6.9 -12.2°
Reaches altitude 10° 16:53:53 10° 350° (N) 2,490 6.0 -12.7°
Maximum altitude 16:58:52 30° 51° (NE) 1,483 4.5 -13.5°
Enters shadow 17:02:55 14° 106° (ESE) 2,193 5.4 -14.2°
